Location: Moulis
(42.9609°N, 1.0909°E)
Time: 17:29:34
(UTC+00:00)

IRIDIUM 106 - Pass Details

Date: 11 December 2025
Orbit: 776 x 779 km, 86.4° (Epoch: 22 January)

Event Time Altitude Azimuth Distance (km) Brightness Sun altitude
Rises 17:14:03 0° 358° (N) 3,272 7.4 -9.5°
Reaches altitude 10° 17:16:25 10° 359° (N) 2,339 6.6 -9.9°
Maximum altitude 17:21:40 81° 87° (E) 793 4.3 -10.7°
Drops below altitude 10° 17:26:52 10° 175° (S) 2,320 7.0 -11.6°
Sets 17:29:12 0° 176° (S) 3,242 7.8 -12.0°
